Regional Weather Roundup
Issued by NWS

Home | Current Version | Previous Version | Graphics & Text | Print | Product List | Glossary On
Versions: 1 2 3 4 5 6 7 8 9 10 11 12 13 14 15 16 17 18 19 20 21 22 23 24 25 26 27 28 29 30 31 32 33 34 35 36 37 38 39 40 41 42 43 44 45 46 47 48 49 50
000
ASUS43 KBIS 310802
RWRND

NORTH DAKOTA REGIONAL WEATHER ROUNDUP
NATIONAL WEATHER SERVICE BISMARCK ND
300 AM CDT WED AUG 31 2016

NOTE: "FAIR" INDICATES FEW OR NO CLOUDS BELOW 12,000 FEET WITH NO
SIGNIFICANT WEATHER AND/OR OBSTRUCTIONS TO VISIBILITY.


NDZ001>003-009>011-017-310900-
NORTHWEST NORTH DAKOTA

CITY           SKY/WX    TMP DP  RH WIND       PRES   REMARKS
WILLISTON      CLEAR     68  51  54 E9        30.12F
MINOT          MOCLDY    59  53  80 E5        30.19F
MINOT AFB      CLOUDY    57  51  82 SE7       30.19F
$$

NDZ018>021-031>035-040>046-310900-
SOUTHWEST NORTH DAKOTA

CITY           SKY/WX    TMP DP  RH WIND       PRES   REMARKS
BISMARCK       CLEAR     62  54  74 NE9       30.19F
DICKINSON      CLEAR     58  55  90 E10       30.13S
GARRISON         N/A     64  56  75 E8        30.18F
HETTINGER ARPT CLEAR     65  57  75 SE7       30.16F
$$

NDZ004>008-012>016-024-026-027-054-310900-
NORTHEAST NORTH DAKOTA

CITY           SKY/WX    TMP DP  RH WIND       PRES   REMARKS
GRAND FORKS    PTCLDY    53  49  86 NW5       30.23S
GRND FRKS AFB  PTCLDY    54  50  86 N5        30.24S
DEVILS LAKE    CLEAR     58  49  72 E6        30.25S
$$

NDZ022-023-025-028>030-036>039-047>053-310900-
SOUTHEAST NORTH DAKOTA

CITY           SKY/WX    TMP DP  RH WIND       PRES   REMARKS
FARGO          CLEAR     56  52  86 CALM      30.21S
JAMESTOWN      PTCLDY    57  54  89 CALM      30.21F
$$





USA.gov is the U.S. government's official web portal to all federal, state and local government web resources and services.